Weather History for Sidney, NE

Change the Weather History Date:

Monday, February 18, 2013

  Actual Average Record
Temperature  
Mean Temperature 26 °F 32 °F  
Max Temperature 41 °F 46 °F 70 °F (2004)
Min Temperature 10 °F 19 °F -13 °F (1993)
Degree Days  
Heating Degree Days 39 33  
Month to date heating degree days 599 615  
Since 1 July heating degree days 4302 4272  
Cooling Degree Days 0 0  
Month to date cooling degree days 0 0  
Year to date cooling degree days 0 0  
Moisture  
Dew Point 17 °F    
Average Humidity 63    
Maximum Humidity 91    
Minimum Humidity 34    
Precipitation  
Precipitation 0.00 in 0.01 in 0.41 in (2010)
Month to date precipitation 0.01 0.16  
Year to date precipitation 0.18 0.36  
Sea Level Pressure  
Sea Level Pressure 30.00 in    
Wind  
Wind Speed 19 mph (NNW)    
Max Wind Speed 37 mph    
Max Gust Speed 46 mph    
Visibility 10 miles    
Events      
T = Trace of Precipitation, MM = Missing Value Source: NWS Daily Summary

Daily Weather History Graph

Daily Weather History Graph

Search for Another Location

Airport:

Trip Planner

Search our weather history database for the weather conditions in past years. The results will help you decide how hot, cold, wet, or windy it might be!

Date:

Astronomy

Feb. 18, 2013 Rise Set
Actual Time 6:41 AM MST 5:30 PM MST
Civil Twilight 6:13 AM MST 5:58 PM MST
Nautical Twilight 5:41 AM MST 6:30 PM MST
Astronomical Twilight 5:09 AM MST 7:02 PM MST
Moon 11:16 AM MST (2/18) 1:25 AM MST (2/18)
Length of Visible Light 11h 44m
Length of Day
10h 48m
First Quarter, 59% of the Moon is Illuminated
Feb 18
First Quarter
Feb 25
Full
Mar 4
Last Quarter
Mar 11
New
Mar 19
First Quarter

Hourly Weather History & Observations

Time (MST) Temp. Windchill Dew Point Humidity Pressure Visibility Wind Dir Wind Speed Gust Speed Precip Events Conditions
12:53 AM 28.9 °F 14.8 °F 19.9 °F 69% 29.77 in 10.0 mi NNW 24.2 mph 33.4 mph N/A   Overcast
1:53 AM 28.0 °F 14.3 °F 19.9 °F 72% 29.77 in 10.0 mi NNW 21.9 mph - N/A   Overcast
2:53 AM 27.0 °F 12.2 °F 19.0 °F 72% 29.78 in 10.0 mi NNW 24.2 mph 31.1 mph N/A   Mostly Cloudy
3:53 AM 27.0 °F 13.2 °F 19.0 °F 72% 29.82 in 10.0 mi NNW 20.7 mph 26.5 mph N/A   Clear
4:53 AM 27.0 °F 15.6 °F 19.0 °F 72% 29.85 in 10.0 mi NW 13.8 mph - N/A   Mostly Cloudy
5:53 AM 27.0 °F 14.7 °F 17.1 °F 66% 29.88 in 10.0 mi NW 16.1 mph - N/A   Mostly Cloudy
6:53 AM 27.0 °F 13.5 °F 18.0 °F 69% 29.92 in 10.0 mi NNW 19.6 mph 29.9 mph N/A   Clear
7:53 AM 30.9 °F 18.1 °F 18.0 °F 59% 29.95 in 10.0 mi NNW 21.9 mph 27.6 mph N/A   Clear
8:53 AM 33.1 °F 19.1 °F 19.0 °F 56% 29.98 in 10.0 mi NNW 29.9 mph 36.8 mph N/A   Scattered Clouds
9:53 AM 36.0 °F 23.5 °F 16.0 °F 44% 29.98 in 10.0 mi NNW 27.6 mph 35.7 mph N/A   Clear
10:53 AM 37.0 °F 24.5 °F 15.1 °F 41% 30.00 in 10.0 mi NNW 29.9 mph 36.8 mph N/A   Partly Cloudy
11:53 AM 39.0 °F 27.4 °F 14.0 °F 36% 29.99 in 10.0 mi NNW 28.8 mph 43.7 mph N/A   Clear
12:53 PM 39.0 °F 28.0 °F 14.0 °F 36% 30.00 in 10.0 mi NW 25.3 mph 39.1 mph N/A   Scattered Clouds
1:53 PM 37.0 °F 26.4 °F 14.0 °F 39% 30.01 in 10.0 mi NNW 20.7 mph - N/A   Mostly Cloudy
2:53 PM 35.1 °F 22.2 °F 16.0 °F 46% 30.05 in 10.0 mi NNW 27.6 mph 33.4 mph N/A   Overcast
3:53 PM 33.1 °F 20.9 °F 19.9 °F 59% 30.08 in 10.0 mi North 21.9 mph - N/A   Mostly Cloudy
4:01 PM 32.0 °F 19.8 °F 19.4 °F 60% 30.00 in 10.0 mi North 20.7 mph - N/A   Mostly Cloudy
4:53 PM 30.0 °F 20.0 °F 21.0 °F 69% 30.09 in 10.0 mi NW 12.7 mph - N/A   Clear
5:53 PM 28.0 °F 17.0 °F 19.0 °F 69% 30.12 in 10.0 mi NW 13.8 mph - N/A   Mostly Cloudy
6:53 PM 25.0 °F 13.6 °F 19.0 °F 78% 30.14 in 10.0 mi NNW 12.7 mph - N/A   Clear
7:53 PM 21.0 °F 11.4 °F 18.0 °F 88% 30.16 in 10.0 mi West 8.1 mph - N/A   Partly Cloudy
8:53 PM 19.9 °F 11.1 °F 17.1 °F 89% 30.18 in 10.0 mi NW 6.9 mph - N/A   Partly Cloudy
9:53 PM 19.0 °F 8.2 °F 14.0 °F 81% 30.18 in 10.0 mi North 9.2 mph - N/A   Clear
10:53 PM 10.0 °F 1.8 °F 6.1 °F 84% 30.21 in 10.0 mi WNW 4.6 mph - N/A   Clear
11:53 PM 14.0 °F 3.9 °F 10.0 °F 84% 30.19 in 10.0 mi NW 6.9 mph - N/A   Clear